TimeEDT,TemperatureF,Dew PointF,Humidity,Sea Level PressureIn,VisibilityMPH,Wind Direction,Wind SpeedMPH,Gust SpeedMPH,PrecipitationIn,Events,Conditions,WindDirDegrees,DateUTC
12:54 AM,71.1,69.1,93,30.05,8.0,Calm,Calm,-,N/A,,Clear,0,2013-09-06 04:54:00
1:54 AM,69.1,69.1,100,30.06,5.0,NNW,5.8,-,N/A,,Clear,330,2013-09-06 05:54:00
2:18 AM,75.2,73.4,94,30.05,5.0,North,11.5,-,N/A,,Partly Cloudy,350,2013-09-06 06:18:00
2:54 AM,73.9,72.0,93,30.05,9.0,North,9.2,-,N/A,,Partly Cloudy,350,2013-09-06 06:54:00
3:54 AM,73.0,70.0,90,30.06,10.0,NNE,9.2,-,N/A,,Clear,20,2013-09-06 07:54:00
4:54 AM,73.0,70.0,90,30.07,10.0,North,8.1,-,N/A,,Clear,10,2013-09-06 08:54:00
5:54 AM,73.0,69.1,87,30.08,10.0,NNE,10.4,-,N/A,,Clear,30,2013-09-06 09:54:00
6:54 AM,73.0,69.1,87,30.09,10.0,NE,12.7,-,N/A,,Clear,40,2013-09-06 10:54:00
7:54 AM,73.9,69.1,85,30.12,10.0,ENE,10.4,-,N/A,,Clear,60,2013-09-06 11:54:00
8:54 AM,75.9,68.0,76,30.13,10.0,ENE,10.4,-,N/A,,Scattered Clouds,70,2013-09-06 12:54:00
9:54 AM,77.0,68.0,74,30.14,10.0,ENE,12.7,-,N/A,,Mostly Cloudy,70,2013-09-06 13:54:00
11:54 AM,77.0,64.9,66,30.16,10.0,NE,15.0,-,N/A,,Mostly Cloudy,50,2013-09-06 15:54:00
12:54 PM,77.0,63.0,62,30.16,10.0,ENE,17.3,-,N/A,,Mostly Cloudy,60,2013-09-06 16:54:00
3:54 PM,77.0,61.0,58,30.12,10.0,ENE,17.3,-,N/A,,Scattered Clouds,60,2013-09-06 19:54:00
4:54 PM,75.0,59.0,57,30.13,10.0,ENE,13.8,-,N/A,,Overcast,70,2013-09-06 20:54:00
5:54 PM,73.9,59.0,59,30.12,10.0,ENE,12.7,-,N/A,,Clear,70,2013-09-06 21:54:00
6:54 PM,72.0,57.0,59,30.12,10.0,ENE,11.5,-,N/A,,Clear,60,2013-09-06 22:54:00
7:54 PM,69.1,57.9,68,30.12,10.0,East,6.9,-,N/A,,Partly Cloudy,80,2013-09-06 23:54:00
8:54 PM,69.1,57.0,65,30.14,10.0,East,8.1,-,N/A,,Partly Cloudy,80,2013-09-07 00:54:00
9:54 PM,68.0,57.9,70,30.14,10.0,ENE,8.1,-,N/A,,Clear,60,2013-09-07 01:54:00
10:54 PM,66.9,57.0,70,30.14,10.0,ENE,8.1,-,N/A,,Clear,60,2013-09-07 02:54:00
11:54 PM,66.9,57.0,70,30.14,10.0,NE,5.8,-,N/A,,Clear,50,2013-09-07 03:54:00